Location: McLaughlin
(0.0000°N, 0.0000°E)
Time: 23:51:43
(UTC+00:00)

Hubble Space Telescope - Pass Details

Date: 26 June 2019
Orbit: 536 x 540 km, 28.5° (Epoch: 13 October)

Event Time Altitude Azimuth Distance (km) Brightness Sun altitude
Exits shadow 04:09:25 54° 56° (ENE) 649 1.4 -25.8°
Drops below altitude 10° 04:13:04 10° 109° (ESE) 1,778 4.0 -25.0°
Sets 04:15:21 0° 113° (ESE) 2,669 4.9 -24.5°
